EW7431 Weather Reports


Display with metric or nautical units.
time (UTC)temp
F
wind
direction
speed
MPH
gust
MPH
rain 1hr
in
rain 24hr
in
rain mn
in
humidity
%
barometer
mb
20260504081526 44 246 0.0 1.0 0.00 0.00 0.00 66 1014.3
20260504050005 45 231 0.0 2.0 0.00 0.00 0.00 65 1014.3
20260504044512 45 152 0.0 1.0 0.00 0.00 0.00 63 1014.3
20260504043011 46 152 0.0 2.0 0.00 0.00 0.00 64 1014.2
20260504041506 46 152 0.0 2.0 0.00 0.00 0.00 61 1014.2
20260504040008 47 152 0.0 1.0 0.00 0.00 0.00 60 1013.9
20260504034510 47 152 0.0 2.0 0.00 0.00 0.00 59 1013.8
20260504033008 48 152 0.0 1.0 0.00 0.00 0.00 57 1013.8
20260504031505 48 152 0.0 0.0 0.00 0.00 0.00 57 1013.7
20260504030030 49 152 0.0 1.0 0.00 0.00 0.00 54 1013.6
20260504024510 49 152 0.0 2.0 0.00 0.00 0.00 53 1013.7
20260504023010 48 152 0.0 1.0 0.00 0.00 0.00 54 1013.7
20260504021511 48 152 0.0 3.0 0.00 0.00 0.00 55 1013.8
20260504020010 49 155 0.0 2.0 0.00 0.00 0.00 56 1013.7
20260504014524 49 165 0.0 2.0 0.00 0.00 0.00 53 1013.7
20260504013008 50 166 1.0 3.0 0.00 0.00 0.00 55 1013.7
20260504011514 50 211 0.0 1.0 0.00 0.00 0.00 53 1013.6
20260504010019 51 216 0.0 1.0 0.00 0.00 0.00 51 1013.4
20260504004515 51 207 0.0 1.0 0.00 0.00 0.00 50 1013.2
20260504003025 52 207 0.0 2.0 0.00 0.00 0.00 53 1013.0
20260504001511 54 242 0.0 1.0 0.00 0.00 0.00 45 1012.8
20260504000016 55 242 0.0 2.0 0.00 0.00 0.00 41 1012.7
20260503234529 56 249 1.0 8.0 0.00 0.00 0.00 40 1012.5
20260503233018 56 254 4.0 11.0 0.00 0.00 0.00 40 1012.4
20260503231521 57 263 4.0 8.0 0.00 0.00 0.00 40 1012.4
20260503230017 57 254 5.0 9.0 0.00 0.00 0.00 40 1012.4
20260503224512 57 243 3.0 9.0 0.00 0.00 0.00 40 1012.4
20260503223019 57 247 7.0 11.0 0.00 0.00 0.00 41 1012.3
20260503221520 57 280 6.0 10.0 0.00 0.00 0.00 39 1012.3
20260503220016 57 250 6.0 14.0 0.00 0.00 0.00 38 1012.3
20260503214526 58 255 7.0 16.0 0.00 0.00 0.00 37 1012.3
20260503213018 58 309 8.0 20.0 0.00 0.00 0.00 35 1012.1
20260503211516 58 229 7.0 13.0 0.00 0.00 0.00 35 1012.0
20260503210026 58 285 6.0 13.0 0.00 0.00 0.00 37 1012.0
20260503204533 58 246 9.0 14.0 0.00 0.00 0.00 37 1012.1
20260503203025 58 347 4.0 18.0 0.00 0.00 0.00 36 1012.1
20260503201519 58 300 5.0 14.0 0.00 0.00 0.00 39 1012.2
20260503200016 57 267 7.0 17.0 0.00 0.00 0.00 42 1012.4
20260503194516 57 206 7.0 17.0 0.00 0.00 0.00 41 1012.5
20260503193013 56 326 7.0 17.0 0.00 0.00 0.00 41 1012.7
20260503191510 55 291 6.0 13.0 0.00 0.00 0.00 42 1012.7
20260503190009 56 224 8.0 16.0 0.00 0.00 0.00 40 1013.0
20260503184513 55 251 7.0 18.0 0.00 0.00 0.00 39 1013.1
20260503183024 55 281 8.0 17.0 0.00 0.00 0.00 49 1013.3
20260503181522 55 260 8.0 15.0 0.00 0.00 0.00 38 1013.2
20260503180024 55 279 5.0 13.0 0.00 0.00 0.00 46 1013.3
20260503174515 54 309 10.0 19.0 0.00 0.00 0.00 44 1013.4
20260503173015 53 338 6.0 13.0 0.00 0.00 0.00 42 1013.5
20260503171512 53 265 8.0 14.0 0.00 0.00 0.00 44 1013.6